Belen, NM

9:32 AM MDT on July 20, 2017 (GMT -0600)
Belen

Weather History for KE80 - February, 2013

Change the Weather History Date:

Tuesday, February 19, 2013

  Actual Average (KABQ) Record (KABQ)
Temperature  
Mean Temperature 40 °F -  
Max Temperature 61 °F 55 °F 72 °F (1981)
Min Temperature 19 °F 29 °F 12 °F (1910)
Degree Days  
Heating Degree Days 25    
Moisture  
Dew Point 5 °F    
Average Humidity 29    
Maximum Humidity 77    
Minimum Humidity 12    
Precipitation  
Precipitation 0.00 in - - ()
Sea Level Pressure  
Sea Level Pressure 29.92 in    
Wind  
Wind Speed 9 mph (SSW)    
Max Wind Speed 33 mph    
Max Gust Speed 41 mph    
Visibility 10 miles    
Events      
Averages and records for this station are not official NWS values.
T = Trace of Precipitation, MM = Missing Value Source: NWS Daily Summary

Daily Weather History Graph

Daily Weather History Graph

Search for Another Location

Airport or City:

Trip Planner

Search our weather history database for the weather conditions in past years. The results will help you decide how hot, cold, wet, or windy it might be!

Date:

Astronomy

Feb. 19, 2013 Rise Set
Actual Time 6:48 AM MST 5:54 PM MST
Civil Twilight 6:22 AM MST 6:20 PM MST
Nautical Twilight 5:53 AM MST 6:49 PM MST
Astronomical Twilight 5:23 AM MST 7:18 PM MST
Moon 12:35 PM MST (2/19) 2:14 AM MST (2/19)
Length of Visible Light 11h 57m
Length of Day
11h 06m
Waxing Gibbous, 68% of the Moon is Illuminated
Feb 19
Waxing Gibbous
Feb 25
Full
Mar 4
Last Quarter
Mar 11
New
Mar 19
First Quarter

Hourly Weather History & Observations

Time (MST) Temp. Windchill Dew Point Humidity Pressure Visibility Wind Dir Wind Speed Gust Speed Precip Events Conditions
12:15 AM 30.0 °F 23.2 °F -15.3 °F 13% 30.09 in 10.0 mi WNW 6.9 mph - N/A   Clear
12:35 AM 29.7 °F 22.8 °F -14.8 °F 14% 30.09 in 10.0 mi NW 6.9 mph - N/A   Clear
12:55 AM 30.2 °F 21.9 °F -14.8 °F 14% 30.08 in 10.0 mi NNW 9.2 mph - N/A   Clear
1:15 AM 28.8 °F 20.2 °F -15.2 °F 14% 30.08 in 10.0 mi NW 9.2 mph - N/A   Clear
1:35 AM 27.9 °F 19.8 °F -15.2 °F 15% 30.08 in 10.0 mi NW 8.1 mph - N/A   Clear
1:55 AM 27.7 °F 21.3 °F -15.2 °F 15% 30.08 in 10.0 mi NNW 5.8 mph - N/A   Clear
2:15 AM 26.2 °F 17.8 °F -15.3 °F 16% 30.08 in 10.0 mi NW 8.1 mph - N/A   Clear
2:35 AM 24.8 °F 16.9 °F -15.9 °F 16% 30.08 in 10.0 mi WNW 6.9 mph - N/A   Clear
2:55 AM 24.3 °F - -16.2 °F 16% 30.08 in 10.0 mi Calm Calm - N/A   Clear
3:15 AM 24.3 °F - -16.4 °F 16% 30.08 in 10.0 mi Calm Calm - N/A   Clear
3:35 AM 23.5 °F 15.4 °F -16.6 °F 16% 30.06 in 10.0 mi North 6.9 mph - N/A   Clear
3:55 AM 21.9 °F 13.4 °F -16.2 °F 18% 30.05 in 10.0 mi North 6.9 mph - N/A   Clear
4:15 AM 20.7 °F 14.2 °F -17.0 °F 18% 30.05 in 10.0 mi North 4.6 mph - N/A   Clear
4:35 AM 20.7 °F - -17.0 °F 18% 30.05 in 10.0 mi Calm Calm - N/A   Clear
4:55 AM 21.0 °F 16.2 °F -16.4 °F 18% 30.05 in 10.0 mi NW 3.5 mph - N/A   Clear
5:15 AM 20.5 °F 10.8 °F -17.1 °F 18% 30.05 in 10.0 mi NW 8.1 mph - N/A   Clear
5:35 AM 21.7 °F 13.2 °F -15.9 °F 18% 30.05 in 10.0 mi NW 6.9 mph - N/A   Clear
5:55 AM 20.7 °F 11.9 °F -15.9 °F 19% 30.06 in 10.0 mi WNW 6.9 mph - N/A   Clear
6:15 AM 19.9 °F 11.1 °F -15.5 °F 20% 30.06 in 10.0 mi NW 6.9 mph - N/A   Clear
6:35 AM 20.1 °F 10.3 °F -15.2 °F 20% 30.05 in 10.0 mi NW 8.1 mph - N/A   Clear
6:55 AM 19.6 °F 10.6 °F -15.2 °F 21% 30.05 in 10.0 mi NW 6.9 mph - N/A   Clear
7:15 AM 20.5 °F - -15.0 °F 20% 30.05 in 10.0 mi Calm Calm - N/A   Clear
7:35 AM 21.9 °F 17.2 °F -14.8 °F 19% 30.06 in 10.0 mi NW 3.5 mph - N/A   Clear
7:55 AM 27.7 °F 23.8 °F -10.7 °F 18% 30.06 in 10.0 mi NW 3.5 mph - N/A   Clear
8:15 AM 28.2 °F 24.4 °F -11.2 °F 18% 30.06 in 10.0 mi NW 3.5 mph - N/A   Clear
8:35 AM 30.7 °F 26.0 °F -9.4 °F 17% 30.06 in 10.0 mi NNW 4.6 mph - N/A   Clear
8:55 AM 32.5 °F 29.3 °F -8.0 °F 17% 30.06 in 10.0 mi NNW 3.5 mph - N/A   Clear
9:15 AM 34.2 °F - -6.7 °F 17% 30.05 in 10.0 mi Calm Calm - N/A   Clear
9:35 AM 35.6 °F - -6.0 °F 17% 30.04 in 10.0 mi Calm Calm - N/A   Clear
10:15 AM 38.1 °F - -5.3 °F 16% 30.02 in 10.0 mi Calm Calm - N/A   Clear
10:35 AM 39.0 °F - -4.9 °F 15% 30.02 in 10.0 mi Calm Calm - N/A   Clear
10:55 AM 40.3 °F 38.2 °F -4.4 °F 15% 30.00 in 10.0 mi NNE 3.5 mph - N/A   Clear
11:35 AM 43.0 °F 41.3 °F -3.6 °F 14% 29.97 in 10.0 mi NNE 3.5 mph - N/A   Clear
11:55 AM 45.9 °F 44.6 °F -2.6 °F 13% 29.95 in 10.0 mi SE 3.5 mph - N/A   Clear
12:15 PM 46.6 °F - -1.8 °F 13% 29.93 in 10.0 mi Calm Calm - N/A   Clear
12:35 PM 49.3 °F - -0.6 °F 13% 29.91 in 10.0 mi Calm Calm - N/A   Clear
12:55 PM 53.6 °F - 1.4 °F 12% 29.88 in 10.0 mi East 6.9 mph - N/A   Clear
1:15 PM 54.7 °F - 3.0 °F 12% 29.86 in 10.0 mi SSE 9.2 mph 19.6 mph N/A   Clear
1:35 PM 55.0 °F - 3.2 °F 12% 29.85 in 10.0 mi SE 8.1 mph - N/A   Clear
1:55 PM 57.2 °F - 4.8 °F 12% 29.83 in 10.0 mi SSE 12.7 mph 17.3 mph N/A   Clear
2:15 PM 58.8 °F - 5.7 °F 12% 29.81 in 10.0 mi SSE 8.1 mph - N/A   Clear
2:35 PM 61.0 °F - 7.7 °F 12% 29.80 in 10.0 mi South 17.3 mph 24.2 mph N/A   Clear
2:55 PM 61.3 °F - 9.3 °F 13% 29.79 in 10.0 mi SSE 25.3 mph 31.1 mph N/A   Clear
3:15 PM 61.9 °F - 10.6 °F 13% 29.77 in 10.0 mi South 29.9 mph 33.4 mph N/A   Clear
3:35 PM 61.2 °F - 10.4 °F 14% 29.77 in 10.0 mi South 25.3 mph 33.4 mph N/A   Clear
3:55 PM 60.8 °F - 12.4 °F 15% 29.77 in 10.0 mi South 26.5 mph 34.5 mph N/A   Clear
4:15 PM 59.5 °F - 14.5 °F 17% 29.76 in 7.0 mi South 28.8 mph 35.7 mph N/A   Clear
4:35 PM 57.7 °F - 19.0 °F 22% 29.76 in 7.0 mi South 33.4 mph 41.4 mph N/A   Clear
5:35 PM 54.5 °F - 25.2 °F 32% 29.76 in 10.0 mi SSE 19.6 mph 31.1 mph N/A   Mostly Cloudy
5:55 PM 53.6 °F - 27.1 °F 36% 29.76 in 10.0 mi South 21.9 mph 29.9 mph N/A   Scattered Clouds
6:15 PM 52.7 °F - 30.7 °F 43% 29.76 in 10.0 mi SSE 25.3 mph 33.4 mph N/A   Overcast
6:55 PM 51.1 °F - 33.8 °F 52% 29.76 in 10.0 mi South 21.9 mph 38.0 mph N/A   Clear
7:15 PM 50.4 °F - 32.9 °F 51% 29.76 in 10.0 mi South 19.6 mph 31.1 mph N/A   Clear
7:35 PM 50.0 °F - 32.9 °F 52% 29.77 in 10.0 mi South 25.3 mph 28.8 mph N/A   Clear
7:55 PM 49.1 °F - 34.5 °F 57% 29.76 in 10.0 mi South 26.5 mph 34.5 mph N/A   Clear
8:15 PM 48.4 °F - 34.7 °F 59% 29.77 in 10.0 mi South 24.2 mph 28.8 mph N/A   Clear
8:35 PM 47.7 °F - 35.4 °F 63% 29.77 in 10.0 mi South 26.5 mph 31.1 mph N/A   Clear
8:55 PM 46.9 °F - 36.3 °F 67% 29.77 in 10.0 mi South 24.2 mph 31.1 mph N/A   Clear
9:15 PM 46.0 °F 38.0 °F 36.9 °F 70% 29.77 in 10.0 mi South 21.9 mph 29.9 mph N/A   Clear
9:35 PM 45.5 °F 37.8 °F 36.7 °F 71% 29.78 in 10.0 mi South 19.6 mph - N/A   Clear
9:55 PM 45.1 °F 37.9 °F 36.7 °F 72% 29.79 in 10.0 mi South 17.3 mph 25.3 mph N/A   Clear
10:15 PM 44.8 °F 37.1 °F 36.5 °F 73% 29.78 in 10.0 mi South 18.4 mph 21.9 mph N/A   Clear
10:35 PM 44.6 °F 37.4 °F 36.5 °F 73% 29.78 in 10.0 mi South 16.1 mph - N/A   Clear
10:55 PM 44.6 °F 37.4 °F 36.7 °F 74% 29.78 in 10.0 mi South 16.1 mph 21.9 mph N/A   Clear
11:15 PM 44.4 °F 37.2 °F 36.9 °F 75% 29.77 in 10.0 mi South 16.1 mph - N/A   Clear
11:35 PM 44.1 °F 36.5 °F 37.0 °F 76% 29.78 in 10.0 mi South 17.3 mph - N/A   Clear
11:55 PM 44.1 °F 38.6 °F 37.4 °F 77% 29.78 in 10.0 mi South 10.4 mph - N/A   Scattered Clouds